Date String (YYYY-MM-DD hh:mm:ss) UTC,Instrument flags,Ambient pressure (hPa),Sample flow (lpm),Bypass flow (lpm),Sample temperature (°C),Ambient temperature (°C),ASC tube jacket temperature (°C),LED temperature (°C),Box temperature (°C),Sample RH (%),Span deviation,Mass concentration (μg/m³),Mass concentration (μg/m³),Mass concentration (μg/m³)
DateTimeUTC,F1_M11,P_M11,Q1_M11,Q2_M11,T1_M11,T2_M11,T3_M11,T4_M11,T5_M11,U1_M11,ZSPAN_M11,X2_M11,X0_M11,X1_M11
2022-03-02 03:00:00,,0829.8,5.00,0.00,29.9,29.1,00.0,39.0,31.6,08.7,0000.0,0000.63,0002.42,0000.42
2022-03-02 03:01:00,,0829.8,5.01,0.00,29.9,29.1,00.0,39.0,31.6,08.5,0000.0,0000.68,0002.46,0000.42
2022-03-02 03:02:00,,0829.8,4.99,0.00,29.9,29.1,00.0,39.0,31.6,08.6,0000.0,0000.67,0002.40,0000.42
2022-03-02 03:03:00,,0829.9,5.00,0.00,29.9,29.1,00.0,39.0,31.5,08.6,0000.0,0000.65,0002.34,0000.42
2022-03-02 03:04:00,,0829.9,4.99,0.00,29.9,29.1,00.0,39.0,31.6,08.6,0000.0,0000.63,0002.42,0000.42
2022-03-02 03:05:00,,0829.9,5.01,0.00,29.9,29.1,00.0,39.0,31.6,08.7,0000.0,0000.65,0002.42,0000.43
2022-03-02 03:06:00,,0829.9,5.00,0.00,29.9,29.1,00.0,39.0,31.5,08.7,0000.0,0000.67,0002.53,0000.44
2022-03-02 03:07:00,,0829.9,5.02,0.00,29.9,29.1,00.0,39.0,31.5,08.7,0000.0,0000.69,0001.96,0000.45
2022-03-02 03:08:00,,0830.0,4.98,0.00,29.9,29.1,00.0,39.0,31.5,08.7,0000.0,0000.71,0001.53,0000.46
2022-03-02 03:09:00,,0830.0,5.01,0.00,29.9,29.1,00.0,39.0,31.5,08.7,0000.0,0000.71,0001.51,0000.46
2022-03-02 03:10:00,,0830.0,4.99,0.00,29.9,29.1,00.0,39.0,31.5,08.7,0000.0,0000.69,0001.39,0000.46
2022-03-02 03:11:00,,0830.0,5.01,0.00,29.9,29.1,00.0,39.0,31.6,08.6,0000.0,0000.68,0001.31,0000.46
2022-03-02 03:12:00,,0829.9,5.00,0.00,29.9,29.1,00.0,39.0,31.6,08.5,0000.0,0000.66,0001.29,0000.48
2022-03-02 03:13:00,,0829.9,4.99,0.00,29.9,29.1,00.0,39.0,31.6,08.5,0000.0,0000.67,0001.29,0000.51
2022-03-02 03:14:00,,0829.9,5.01,0.00,29.9,29.1,00.0,39.0,31.5,08.6,0000.0,0000.72,0001.39,0000.52
2022-03-02 03:15:00,,0829.9,4.99,0.00,29.9,29.1,00.0,39.0,31.5,08.5,0000.0,0000.76,0001.46,0000.53
2022-03-02 03:16:00,,0829.9,5.00,0.00,29.9,29.1,00.0,39.0,31.5,08.5,0000.0,0000.75,0001.42,0000.53
2022-03-02 03:17:00,,0830.0,5.00,0.00,29.8,29.1,00.0,38.9,31.5,08.4,0000.0,0000.71,0001.23,0000.52
2022-03-02 03:18:00,,0829.9,4.98,0.00,29.9,29.1,00.0,38.9,31.5,08.4,0000.0,0000.71,0001.25,0000.52
2022-03-02 03:19:00,,0829.9,5.00,0.00,29.8,29.0,00.0,38.9,31.5,08.4,0000.0,0000.70,0001.21,0000.51
2022-03-02 03:20:00,,0829.9,4.98,0.00,29.8,29.0,00.0,38.9,31.5,08.4,0000.0,0000.70,0001.20,0000.52
2022-03-02 03:21:00,,0829.9,5.01,0.00,29.8,29.0,00.0,38.9,31.5,08.5,0000.0,0000.69,0001.19,0000.51
2022-03-02 03:22:00,,0829.9,5.00,0.00,29.8,29.0,00.0,38.9,31.6,08.7,0000.0,0000.69,0001.20,0000.51
2022-03-02 03:23:00,,0829.9,4.99,0.00,29.8,29.0,00.0,38.9,31.5,08.5,0000.0,0000.68,0001.12,0000.49
2022-03-02 03:24:00,,0830.0,5.00,0.00,29.8,29.0,00.0,38.9,31.4,08.4,0000.0,0000.64,0001.08,0000.46
2022-03-02 03:25:00,,0830.0,5.01,0.00,29.8,29.0,00.0,38.9,31.5,08.5,0000.0,0000.60,0001.02,0000.44
2022-03-02 03:26:00,,0830.0,4.99,0.00,29.8,29.0,00.0,38.9,31.5,08.6,0000.0,0000.58,0001.01,0000.44
2022-03-02 03:27:00,,0829.9,5.03,0.00,29.8,29.0,00.0,38.9,31.4,08.6,0000.0,0000.59,0001.05,0000.44
2022-03-02 03:28:00,,0830.0,4.98,0.00,29.8,29.0,00.0,38.9,31.4,08.7,0000.0,0000.61,0001.08,0000.44
2022-03-02 03:29:00,,0830.0,5.02,0.00,29.8,29.0,00.0,38.9,31.4,08.7,0000.0,0000.64,0001.13,0000.44
2022-03-02 03:30:00,,0830.0,4.98,0.00,29.8,29.0,00.0,38.9,31.4,08.8,0000.0,0000.64,0001.14,0000.44
2022-03-02 03:31:00,,0830.0,5.00,0.00,29.8,29.0,00.0,38.9,31.5,08.8,0000.0,0000.66,0001.18,0000.45
2022-03-02 03:32:00,,0830.1,5.01,0.00,29.8,29.0,00.0,38.9,31.5,08.6,0000.0,0000.71,0001.25,0000.47
2022-03-02 03:33:00,,0830.0,4.99,0.00,29.8,29.0,00.0,38.9,31.5,08.6,0000.0,0000.72,0001.28,0000.49
2022-03-02 03:34:00,,0830.0,5.02,0.00,29.8,29.0,00.0,38.9,31.4,08.7,0000.0,0000.76,0001.38,0000.50
2022-03-02 03:35:00,,0830.0,4.99,0.00,29.8,29.0,00.0,38.9,31.4,08.7,0000.0,0000.77,0001.42,0000.51
2022-03-02 03:36:00,,0830.0,5.01,0.00,29.8,29.0,00.0,38.9,31.5,08.7,0000.0,0000.80,0001.43,0000.51
2022-03-02 03:37:00,,0830.1,5.00,0.00,29.8,29.0,00.0,38.9,31.4,08.6,0000.0,0000.79,0001.27,0000.52
2022-03-02 03:38:00,,0830.1,4.99,0.00,29.8,29.0,00.0,38.9,31.4,08.6,0000.0,0000.80,0001.32,0000.52
2022-03-02 03:39:00,,0830.1,5.00,0.00,29.8,29.0,00.0,38.9,31.4,08.5,0000.0,0000.78,0001.28,0000.52
2022-03-02 03:40:00,,0830.0,5.02,0.00,29.8,29.0,00.0,38.9,31.4,08.5,0000.0,0000.74,0001.21,0000.52
2022-03-02 03:41:00,,0830.1,4.98,0.00,29.8,29.0,00.0,38.9,31.5,08.6,0000.0,0000.74,0001.25,0000.52
2022-03-02 03:42:00,,0830.1,4.99,0.00,29.8,29.0,00.0,38.9,31.4,08.7,0000.0,0000.73,0001.28,0000.51
2022-03-02 03:43:00,,0830.1,5.02,0.00,29.8,29.0,00.0,38.8,31.5,08.7,0000.0,0000.74,0001.34,0000.49
2022-03-02 03:44:00,,0830.1,4.99,0.00,29.8,29.0,00.0,38.8,31.5,08.5,0000.0,0000.76,0001.45,0000.48
2022-03-02 03:45:00,,0830.0,5.00,0.00,29.8,29.0,00.0,38.8,31.4,08.5,0000.0,0000.73,0001.38,0000.46
2022-03-02 03:46:00,,0830.1,5.01,0.00,29.8,29.0,00.0,38.8,31.4,08.5,0000.0,0000.72,0001.41,0000.46
2022-03-02 03:47:00,,0830.1,4.99,0.00,29.8,29.0,00.0,38.8,31.4,08.5,0000.0,0000.72,0001.52,0000.46
2022-03-02 03:48:00,,0830.1,4.99,0.00,29.8,29.0,00.0,38.8,31.4,08.5,0000.0,0000.75,0001.63,0000.47
2022-03-02 03:49:00,,0830.0,5.01,0.00,29.8,29.0,00.0,38.8,31.4,08.4,0000.0,0000.74,0001.61,0000.46
2022-03-02 03:50:00,,0830.0,5.00,0.00,29.8,29.0,00.0,38.8,31.4,08.4,0000.0,0000.75,0001.64,0000.46
2022-03-02 03:51:00,,0830.1,4.99,0.00,29.8,28.9,00.0,38.8,31.4,08.4,0000.0,0000.76,0001.69,0000.45
2022-03-02 03:52:00,,0830.0,5.01,0.00,29.8,28.9,00.0,38.8,31.4,08.4,0000.0,0000.75,0001.64,0000.45
2022-03-02 03:53:00,,0830.0,5.00,0.00,29.7,28.9,00.0,38.8,31.4,08.4,0000.0,0000.76,0001.63,0000.45
2022-03-02 03:54:00,,0830.1,5.01,0.00,29.7,28.9,00.0,38.8,31.4,08.5,0000.0,0000.72,0001.88,0000.46
2022-03-02 03:55:00,,0830.1,4.99,0.00,29.7,28.9,00.0,38.8,31.4,08.5,0000.0,0000.69,0001.83,0000.45
2022-03-02 03:56:00,,0830.1,4.99,0.00,29.7,28.9,00.0,38.8,31.4,08.6,0000.0,0000.70,0001.86,0000.45
2022-03-02 03:57:00,,0830.1,5.01,0.00,29.7,28.9,00.0,38.8,31.4,08.4,0000.0,0000.72,0001.93,0000.46
2022-03-02 03:58:00,,0830.0,4.98,0.00,29.7,28.9,00.0,38.8,31.4,08.5,0000.0,0000.72,0001.90,0000.45
2022-03-02 03:59:00,,0830.0,5.01,0.00,29.7,28.9,00.0,38.8,31.4,08.5,0000.0,0000.69,0002.96,0000.45
